Location: *
(37.9500°N, 27.3666°E)
Time: 12:22:04
(UTC+00:00)

Cosmos 1606 Rocket - Pass Details

Date: 24 October 2021
Orbit: 602 x 633 km, 82.5° (Epoch: 02 December)

Event Time Altitude Azimuth Distance (km) Brightness Sun altitude
Rises 17:15:30 0° 184° (S) 2,910 7.0 -23.2°
Reaches altitude 10° 17:17:44 10° 183° (S) 2,008 6.2 -23.7°
Enters shadow 17:20:31 38° 179° (S) 960 4.4 -24.2°
